Location: Czu?�w
(50.1404°N, 18.9919°E)
Time: 04:19:05
(UTC+00:00)

BREEZE-M R/B - Pass Details

Date: 27 October 2020
Orbit: 309 x 4522 km, 49.7° (Epoch: 25 November)

Event Time Altitude Azimuth Distance (km) Brightness Sun altitude
Rises 17:55:40 0° 280° (W) 2,669 7.8 -24.1°
Reaches altitude 10° 17:57:18 10° 278° (W) 2,003 6.8 -24.3°
Maximum altitude 18:01:42 73° 194° (SSW) 998 4.0 -25.0°
Enters shadow 18:03:37 49° 126° (SE) 1,413 4.4 -25.3°
